Location: Lancaster
(34.6980°N, 118.1360°W)
Time: 19:48:01
(UTC-08:00)

ISS - Pass Details

Date: 18 November 2017
Orbit: 402 x 407 km, 51.6° (Epoch: 22 November)

Event Time Altitude Azimuth Distance (km) Brightness Sun altitude
Exits shadow 05:47:24 13° 282° (WNW) 1,304 -1.9 -9.0°
Maximum altitude 05:49:41 25° 230° (SW) 854 -2.5 -8.5°
Drops below altitude 10° 05:52:25 10° 172° (S) 1,442 -0.7 -8.0°
Sets 05:54:41 0° 159° (SSE) 2,297 0.6 -7.6°
